When you browse on this site, cookies collect data to enhance your experience and personalize the content and advertising you see.
Visit our Privacy Policy to learn more. By continuing to use the site, you agree to this use of cookies and data.
  • In Latvia
  • List of Countries
  • For 7 days
  • Water Temperature
  • Weather Map
  • Weather Widgets
  • user-avatar
    Login

    Hourly Weather Banbridge

    Today, 17 September, Tuesday

    Time Temperature Precipitation Wind Pressure Humidity
    00:00 +7°C° 0 mm 2 mps 762 mmHg 92%
    01:00 +7°C° 0 mm 2 mps 762 mmHg 93%
    02:00 +7°C° 0 mm 2 mps 762 mmHg 93%
    03:00 +7°C° 0 mm 2 mps 762 mmHg 93%
    04:00 +6°C° 0 mm 2 mps 762 mmHg 93%
    05:00 +6°C° 0 mm 2 mps 762 mmHg 93%
    06:00 +6°C° 0 mm 2 mps 762 mmHg 93%
    07:00 +8°C° 0 mm 2 mps 762 mmHg 88%
    08:00 +9°C° 0 mm 2 mps 763 mmHg 84%
    09:00 +12°C° 0 mm 2 mps 763 mmHg 79%
    10:00 +13°C° 0 mm 2 mps 763 mmHg 75%
    11:00 +14°C° 0 mm 2 mps 763 mmHg 72%
    12:00 +15°C° 0 mm 2 mps 763 mmHg 69%
    13:00 +15°C° 0 mm 2 mps 763 mmHg 69%
    14:00 +15°C° 0 mm 2 mps 763 mmHg 68%
    15:00 +15°C° 0 mm 2 mps 763 mmHg 68%
    16:00 +14°C° 0 mm 2 mps 763 mmHg 74%
    17:00 +13°C° 0 mm 2 mps 763 mmHg 79%
    18:00 +12°C° 0 mm 2 mps 763 mmHg 85%
    19:00 +11°C° 0 mm 1 mps 763 mmHg 87%
    20:00 +10°C° 0 mm 1 mps 764 mmHg 89%
    21:00 +8°C° 0 mm 0 mps 764 mmHg 91%
    22:00 +8°C° 0 mm 0 mps 764 mmHg 91%
    23:00 +8°C° 0 mm 0 mps 764 mmHg 91%

    Tomorrow, 18 September, Wednesday

    Time Temperature Precipitation Wind Pressure Humidity
    00:00 +7°C° 0 mm 0 mps 764 mmHg 91%
    01:00 +7°C° 0 mm 0 mps 764 mmHg 91%
    02:00 +8°C° 0 mm 1 mps 764 mmHg 92%
    03:00 +8°C° 0 mm 1 mps 764 mmHg 92%
    04:00 +8°C° 0 mm 1 mps 764 mmHg 92%
    05:00 +8°C° 0 mm 1 mps 764 mmHg 92%
    06:00 +8°C° 0 mm 1 mps 764 mmHg 92%
    07:00 +10°C° 0 mm 1 mps 765 mmHg 89%
    08:00 +11°C° 0 mm 1 mps 765 mmHg 85%
    09:00 +13°C° 0 mm 1 mps 765 mmHg 81%
    10:00 +14°C° 0 mm 1 mps 765 mmHg 77%
    11:00 +15°C° 0 mm 1 mps 765 mmHg 73%
    12:00 +18°C° 0 mm 1 mps 765 mmHg 69%
    13:00 +18°C° 0 mm 1 mps 765 mmHg 68%
    14:00 +18°C° 0 mm 1 mps 765 mmHg 68%
    15:00 +19°C° 0 mm 1 mps 765 mmHg 67%
    16:00 +16°C° 0 mm 1 mps 765 mmHg 73%
    17:00 +15°C° 0 mm 1 mps 765 mmHg 78%
    18:00 +14°C° 0 mm 1 mps 765 mmHg 84%
    19:00 +12°C° 0 mm 0 mps 765 mmHg 86%
    20:00 +11°C° 0 mm 0 mps 765 mmHg 88%
    21:00 +10°C° 0 mm 0 mps 766 mmHg 90%
    22:00 +10°C° 0 mm 0 mps 766 mmHg 90%
    23:00 +10°C° 0 mm 0 mps 766 mmHg 90%

    Day after tomorrow, 19 September, Thursday

    Time Temperature Precipitation Wind Pressure Humidity
    00:00 +9°C° 0 mm 0 mps 765 mmHg 91%
    01:00 +9°C° 0 mm 0 mps 765 mmHg 91%
    02:00 +9°C° 0 mm 0 mps 765 mmHg 91%
    03:00 +9°C° 0 mm 0 mps 765 mmHg 91%
    04:00 +9°C° 0 mm 0 mps 765 mmHg 91%
    05:00 +9°C° 0 mm 0 mps 765 mmHg 92%
    06:00 +10°C° 0 mm 1 mps 765 mmHg 92%
    07:00 +11°C° 0 mm 1 mps 765 mmHg 88%
    08:00 +13°C° 0 mm 1 mps 765 mmHg 85%
    09:00 +15°C° 0 mm 1 mps 765 mmHg 81%
    10:00 +16°C° 0 mm 1 mps 765 mmHg 78%
    11:00 +18°C° 0 mm 1 mps 765 mmHg 74%
    12:00 +18°C° 0 mm 2 mps 765 mmHg 71%
    13:00 +18°C° 0 mm 2 mps 765 mmHg 71%
    14:00 +18°C° 0 mm 2 mps 765 mmHg 72%
    15:00 +19°C° 0 mm 2 mps 765 mmHg 73%
    16:00 +17°C° 0 mm 2 mps 764 mmHg 78%
    17:00 +16°C° 0 mm 2 mps 764 mmHg 83%
    18:00 +15°C° 0 mm 2 mps 764 mmHg 88%
    19:00 +14°C° 0 mm 2 mps 764 mmHg 89%
    20:00 +13°C° 0 mm 2 mps 764 mmHg 90%
    21:00 +12°C° 0 mm 2 mps 764 mmHg 91%
    22:00 +12°C° 0 mm 2 mps 764 mmHg 91%
    23:00 +10°C° 0 mm 2 mps 763 mmHg 91%

    20 September, Friday

    Time Temperature Precipitation Wind Pressure Humidity
    00:00 +10°C° 0 mm 2 mps 763 mmHg 91%
    01:00 +10°C° 0 mm 2 mps 763 mmHg 92%
    02:00 +11°C° 0 mm 1 mps 763 mmHg 92%
    03:00 +11°C° 0 mm 1 mps 762 mmHg 92%
    04:00 +10°C° 0 mm 2 mps 762 mmHg 93%
    05:00 +10°C° 0 mm 2 mps 761 mmHg 93%
    06:00 +9°C° 0 mm 2 mps 761 mmHg 94%
    07:00 +12°C° 0 mm 2 mps 761 mmHg 90%
    08:00 +13°C° 0 mm 3 mps 760 mmHg 87%
    09:00 +14°C° 0 mm 3 mps 760 mmHg 84%
    10:00 +15°C° 0 mm 4 mps 760 mmHg 81%
    11:00 +16°C° 0 mm 5 mps 759 mmHg 78%
    12:00 +17°C° 0 mm 6 mps 759 mmHg 74%
    13:00 +17°C° 0 mm 6 mps 758 mmHg 74%
    14:00 +17°C° 0 mm 6 mps 757 mmHg 73%
    15:00 +16°C° 0 mm 7 mps 756 mmHg 72%
    16:00 +15°C° 0 mm 6 mps 756 mmHg 76%
    17:00 +14°C° 0 mm 5 mps 755 mmHg 80%
    18:00 +13°C° 0 mm 4 mps 755 mmHg 84%
    19:00 +13°C° 0 mm 4 mps 754 mmHg 86%
    20:00 +13°C° 0 mm 4 mps 754 mmHg 88%
    21:00 +12°C° 0 mm 4 mps 754 mmHg 90%
    22:00 +12°C° 0 mm 4 mps 753 mmHg 88%
    23:00 +12°C° 0 mm 5 mps 753 mmHg 85%

    21 September, Saturday

    Time Temperature Precipitation Wind Pressure Humidity
    00:00 +12°C° 0 mm 5 mps 752 mmHg 82%
    01:00 +12°C° 0 mm 5 mps 751 mmHg 82%
    02:00 +10°C° 0 mm 5 mps 751 mmHg 82%
    03:00 +10°C° 0 mm 5 mps 750 mmHg 82%
    04:00 +10°C° 0 mm 5 mps 750 mmHg 82%
    05:00 +10°C° 0 mm 5 mps 749 mmHg 82%
    06:00 +10°C° 0 mm 6 mps 748 mmHg 82%
    07:00 +11°C° 0 mm 6 mps 748 mmHg 80%
    08:00 +14°C° 0 mm 6 mps 747 mmHg 78%
    09:00 +15°C° 0 mm 6 mps 747 mmHg 76%
    10:00 +15°C° 0 mm 6 mps 747 mmHg 75%
    11:00 +16°C° 0 mm 6 mps 747 mmHg 74%
    12:00 +17°C° 0 mm 7 mps 746 mmHg 73%
    13:00 +16°C° 0 mm 6 mps 746 mmHg 75%
    14:00 +16°C° 0 mm 6 mps 745 mmHg 78%
    15:00 +15°C° 0 mm 5 mps 745 mmHg 81%
    16:00 +15°C° 0.8 mm 5 mps 744 mmHg 86%
    17:00 +14°C° 0.8 mm 5 mps 744 mmHg 91%
    18:00 +13°C° 0.8 mm 5 mps 744 mmHg 96%
    19:00 +14°C° 0.4 mm 5 mps 744 mmHg 96%
    20:00 +14°C° 0.4 mm 5 mps 744 mmHg 96%
    21:00 +14°C° 0.4 mm 5 mps 743 mmHg 97%
    22:00 +14°C° 1.3 mm 4 mps 743 mmHg 97%
    23:00 +14°C° 1.3 mm 4 mps 743 mmHg 97%

    22 September, Sunday

    Time Temperature Precipitation Wind Pressure Humidity
    00:00 +14°C° 1.3 mm 4 mps 743 mmHg 97%
    01:00 +13°C° 0.9 mm 3 mps 743 mmHg 97%
    02:00 +13°C° 0.9 mm 3 mps 742 mmHg 96%
    03:00 +12°C° 0.9 mm 3 mps 742 mmHg 95%
    04:00 +12°C° 0 mm 3 mps 742 mmHg 95%
    05:00 +11°C° 0 mm 3 mps 743 mmHg 95%
    06:00 +11°C° 0 mm 3 mps 743 mmHg 96%
    07:00 +12°C° 0 mm 4 mps 743 mmHg 93%
    08:00 +12°C° 0 mm 4 mps 743 mmHg 91%
    09:00 +13°C° 0 mm 5 mps 743 mmHg 89%
    10:00 +13°C° 0.3 mm 5 mps 744 mmHg 87%
    11:00 +14°C° 0.3 mm 6 mps 744 mmHg 86%
    12:00 +14°C° 0.3 mm 6 mps 744 mmHg 84%
    13:00 +14°C° 0.2 mm 6 mps 745 mmHg 82%
    14:00 +15°C° 0.2 mm 6 mps 745 mmHg 79%
    15:00 +15°C° 0.2 mm 6 mps 745 mmHg 77%
    16:00 +14°C° 0.2 mm 5 mps 746 mmHg 81%
    17:00 +13°C° 0.2 mm 4 mps 747 mmHg 85%
    18:00 +12°C° 0.2 mm 4 mps 747 mmHg 89%
    19:00 +11°C° 0 mm 4 mps 748 mmHg 90%
    20:00 +10°C° 0 mm 3 mps 749 mmHg 92%
    21:00 +9°C° 0 mm 3 mps 749 mmHg 94%
    22:00 +9°C° 0 mm 3 mps 749 mmHg 94%
    23:00 +8°C° 0 mm 3 mps 750 mmHg 93%
    Show more